Simultaneous Nadir Overpasses (SNOs) Predictions

Prediction of SNOs between NOAA-15 and METOP-C Satellite Orbit:

Table of predicted SNOs for the next 14.0 days since TLE Epoch: 10/26/2024
Index Date (NOAA-15) Time (NOAA-15) Lat,Lon (NOAA-15) SZA (NOAA-15 ) Date (METOP-C) Time (METOP-C) Lat,Lon (METOP-C) SZA (METOP-C ) Distance(km) Time Diff (sec)
1 11/05/2024 11:10:26 -81.02,-129.61 80.88 11/05/2024 11:09:20 -81.04,-129.45 80.88 3.26 66
2 11/05/2024 12:00:56 81.04, 37.49 99.12 11/05/2024 12:00:01 81.03, 37.52 99.09 1.54 55
3 11/05/2024 12:51:25 -81.02,-154.82 80.85 11/05/2024 12:50:42 -81.03,-154.95 80.88 2.54 43
4 11/05/2024 13:41:55 81.04, 12.28 99.14 11/05/2024 13:41:22 81.03, 12.39 99.14 1.94 33
5 11/05/2024 14:32:25 -81.04, 179.60 80.85 11/05/2024 14:32:04 -81.03, 179.56 80.88 1.53 21
6 11/05/2024 15:22:54 81.03, -12.93 99.17 11/05/2024 15:22:44 81.03, -13.11 99.14 3.19 10
7 11/05/2024 16:13:24 -81.04, 154.39 80.83 11/05/2024 16:13:25 -81.04, 154.43 80.83 0.65 1
8 11/05/2024 17:03:53 81.03, -38.13 99.19 11/05/2024 17:04:05 81.04, -38.23 99.19 1.80 12
9 11/05/2024 17:54:23 -81.04, 129.18 80.81 11/05/2024 17:54:46 -81.04, 129.30 80.78 2.33 23
10 11/05/2024 18:44:52 81.03, -63.34 99.21 11/05/2024 18:45:26 81.04, -63.36 99.24 1.69 34
11 11/05/2024 19:35:22 -81.03, 103.97 80.79 11/05/2024 19:36:08 -81.04, 103.80 80.78 2.89 46
12 11/05/2024 20:25:52 81.05, -88.91 99.21 11/05/2024 20:26:48 81.04, -88.86 99.24 1.27 56
13 11/05/2024 21:16:21 -81.03, 78.76 80.76 11/05/2024 21:17:29 -81.05, 78.68 80.73 2.17 68



Historial Predications of SNOs between NOAA-15 and METOP-C
